Regional Weather Roundup
Issued by NWS Burlington, VT

Home | Current Version | Previous Version | Text Only | Print | Product List | Glossary On
Versions: 1 2 3 4 5 6 7 8 9 10 11 12 13 14 15 16 17 18 19 20 21 22 23 24 25 26 27 28 29 30 31 32 33 34 35 36 37 38 39 40 41 42 43 44 45 46 47 48 49 50
000
ASUS41 KBTV 272210
RWRBTV
VERMONT REGIONAL WEATHER ROUNDUP
NATIONAL WEATHER SERVICE BURLINGTON VT
500 PM EST FRI FEB 27 2015

NOTE: "FAIR" INDICATES FEW OR NO CLOUDS BELOW 12,000 FEET WITH NO
SIGNIFICANT WEATHER AND/OR OBSTRUCTIONS TO VISIBILITY.

* THESE REPORTS ARE NOT UNDER NWS QUALITY CONTROL AND/OR DO NOT
  REPORT WEATHER SUCH AS PRECIPITATION AND FOG.

VTZ001>019-272300-
_____VERMONT_____


CITY           SKY/WX    TMP DP  RH WIND       PRES   REMARKS
BURLINGTON     PTCLDY    18  -5  36 NW5       30.39R
MONTPELIER     CLEAR     14  -8  37 N5        30.35R
MORRISVILLE    CLEAR     16  -6  37 N6        30.36R
ST. JOHNSBURY*   N/A     17  -9  31 MISG      30.33R
LYNDONVILLE*   FAIR      15 -13  28 SW6       30.32R
MIDDLEBURY*    FAIR      18  -9  29 CALM      30.37S
RUTLAND*       CLEAR     18 -11  27 N3        30.34S
SPRINGFIELD    CLEAR     20  -8  28 NW5       30.37R
HIGHGATE*      FAIR      15  -7  38 NE5       30.41R
NEWPORT*       FAIR      13 -10  35 W3        30.34R
BENNINGTON     CLEAR     18  -1  43 W8        30.37R

_____LAKE CHAMPLAIN_____


CITY           SKY/WX    TMP DP  RH WIND       PRES   REMARKS

$$

NYZ007-026>031-035-052-083-272300-
_____NORTHERN NEW YORK_____


CITY           SKY/WX    TMP DP  RH WIND       PRES   REMARKS
PLATTSBURGH    CLEAR     15  -6  39 CALM      30.41R
SARANAC LAKE   CLEAR     13  -9  37 W9        30.27R
MASSENA        CLEAR     14  -6  40 SW10      30.45R WCI   1
OGDENSBURG*    CLEAR     16  -2  45 SW13G20   30.46R WCI   2
POTSDAM*       CLEAR     12  -2  52 W12G18    30.43R WCI  -2
WATERTOWN      CLOUDY    15   9  76 W10       30.49R WCI   2
FT DRUM        FLURRIES  12   5  73 SW12      30.44R WCI  -2
ALBANY         PTCLDY    20   0  41 W16       30.43R WCI   6
GLENS FALLS    CLEAR     21   3  45 SE12      30.39R WCI   9

$$
NHZ002-005-011-272300-
_____NEW HAMPSHIRE_____


CITY           SKY/WX    TMP DP  RH WIND       PRES   REMARKS
LEBANON        CLEAR     21  -6  30 NW9       30.34R
KEENE          CLEAR     23  -6  28 N7        30.35R
MT WASHINGTON  PTCLDY    -8 -13  77 NW38        N/A  WCI -39
PLYMOUTH       FAIR      20  -2  37 W8G16     30.34R
WHITEFIELD     CLEAR     16 -10  31 W9        30.30R

$$

_____REGIONAL QUEBEC LOCATIONS_____


CITY           SKY/WX    TMP DP  RH WIND       PRES   REMARKS
MONTREAL       PTCLDY    14  -6  41 SW16G22   30.42R WCI  -2
QUEBEC CITY    PTCLDY    10  -6  48 W15       30.31R WCI  -6
SHERBROOKE     CLEAR     10  -8  44 W9        30.33R

_____REGIONAL ONTARIO LOCATIONS_____


CITY           SKY/WX    TMP DP  RH WIND       PRES   REMARKS
OTTAWA         CLEAR     16  -6  38 S8        30.39R

______KEY______
VSB  - VISIBILITY IN MILES
WCI  - WIND CHILL INDEX
HX   - HEAT INDEX
$$
NNNN


USA.gov is the U.S. government's official web portal to all federal, state and local government web resources and services.